[[{"header":{"parameterUnit":"m.s-1","parameterCategory":2,"la1":30.2992,"la2":30.254,"lo1":-89.0895,"lo2":-89.0443,"dy":0.0025,"dx":0.0025,"nx":19,"ny":19,"refTime":"2026-04-07T09:00:00:Z","depth":"0","parameterNumber":2,"parameterNumberName":"U-component_of_CURRENTS"},"data":[0,0,0,0.2515,0.2515,0.2509,0.2509,0.2509,0.2509,0,0,0,0,0,0,0,0,0,0,0,0.2514,0.2514,0.2515,0.2515,0.2509,0.2509,0.2509,0.2509,0,0,0,0,0,0,0,0,0,0,0,0.2514,0.2514,0.2514,0.2515,0.2509,0.2509,0.2509,0.2509,0,0,0,0,0,0,0,0,0,0,0.2513,0.2513,0.2514,0.2514,0.2515,0.2509,0.2509,0.2509,0.2509,0.2517,0,0.2521,0,0.2521,0.251,0.251,0,0,0,0.2505,0.2513,0.2515,0.2514,0.2515,0.2509,0.2509,0.2509,0.2509,0.2517,0.2521,0.2521,0.2521,0.251,0.2511,0.2571,0.2572,0,0,0.2506,0.2508,0.2515,0.2516,0.252,0.2509,0.2509,0.2509,0.251,0.2521,0.2521,0.2521,0.2511,0.2511,0.2571,0.2572,0,0,0,0.2513,0.2508,0.251,0.2516,0.2518,0.2509,0.2509,0.251,0.2512,0.2521,0.2521,0.2511,0.2511,0.257,0.2571,0.2601,0,0,0,0.2513,0.2513,0.251,0.2511,0.2518,0.2513,0.251,0.2511,0.2512,0.2521,0.2511,0.2511,0.257,0.2571,0.2599,0.2613,0,0,0,0.2513,0.2513,0.2515,0.2511,0.2514,0.2513,0.2514,0.2511,0.2513,0.251,0.2511,0.2569,0.2571,0.2597,0.261,0.2658,0,0,0,0.2511,0.2513,0.2515,0.2523,0.2514,0.2528,0.2514,0.2518,0.2517,0.2511,0.257,0.2571,0.2596,0.2608,0.2656,0.2648,0.2658,0,0,0.2512,0.2513,0.2519,0.2521,0.2533,0.2528,0.2554,0.2544,0.2543,0.2567,0.2568,0.26,0.2609,0.2657,0.2723,0.2731,0,0,0,0.2518,0.252,0.2526,0.2534,0.2546,0.2566,0.2562,0.2576,0.2599,0.2551,0.2618,0.2624,0.2653,0.2644,0.265,0.2567,0.2577,0.2577,0.2577,0.2508,0.2519,0.2522,0.254,0.2559,0.2592,0.2619,0.2641,0.2629,0.2654,0.2662,0.2736,0.2728,0.2732,0.2647,0.2677,0.2677,0.2677,0.2677,0.249,0.2482,0.2512,0.2517,0.2557,0.2588,0.2666,0.2682,0.2746,0.2716,0.2743,0.2692,0.2741,0.2648,0.2679,0.2679,0.2679,0.2678,0.2678,0.2457,0.2453,0.2462,0.248,0.2521,0.2584,0.266,0.2724,0.2773,0.2807,0.2806,0.2805,0.2712,0.2822,0.2822,0.2823,0.2823,0.2823,0.2823,0.2407,0.2418,0.2419,0.2447,0.2467,0.2541,0.2659,0.2729,0.2822,0.2847,0.2847,0.2731,0.2781,0.2763,0.2828,0.2827,0.2826,0.2826,0.2826,0.236,0.2376,0.2369,0.2381,0.2426,0.2427,0.2581,0.2717,0.2826,0.287,0.2797,0.2876,0.2869,0.2863,0.2847,0.2931,0.2931,0.2931,0.2931,0.2333,0.234,0.2314,0.2308,0.234,0.2368,0.2384,0.2516,0.269,0.2731,0.2793,0.2735,0.2735,0.2716,0.2713,0.2693,0.2736,0.2735,0.2735,0.2314,0.2307,0.2264,0.2247,0.2265,0.2268,0.2174,0.2195,0.2506,0.2718,0.2682,0.269,0.2594,0.2599,0.2559,0.2561,0.2524,0,0]},{"header":{"parameterUnit":"m.s-1","parameterCategory":2,"la1":30.2992,"la2":30.254,"lo1":-89.0895,"lo2":-89.0443,"dy":0.0025,"dx":0.0025,"nx":19,"ny":19,"refTime":"2026-04-07T09:00:00:Z","depth":"0","parameterNumber":3,"parameterNumberName":"V-component_of_CURRENTS"},"data":[0,0,0,-0.0026,-0.0026,-0.0059,-0.0059,-0.0112,-0.0112,0,0,0,0,0,0,0,0,0,0,0,-0.0019,-0.0019,-0.0026,-0.0026,-0.0059,-0.0059,-0.0112,-0.0112,0,0,0,0,0,0,0,0,0,0,0,-0.0019,-0.0019,-0.0019,-0.0026,-0.0059,-0.0059,-0.0112,-0.0088,0,0,0,0,0,0,0,0,0,0,-0.0056,-0.004,-0.0019,-0.0019,-0.0027,-0.0059,-0.0059,-0.0087,-0.0089,-0.0096,0,-0.0095,0,-0.0097,-0.0115,-0.0115,0,0,0,-0.004,-0.0038,-0.0046,-0.0019,-0.0027,-0.0058,-0.0048,-0.0088,-0.0091,-0.01,-0.0096,-0.0098,-0.0098,-0.0115,-0.0115,-0.0092,-0.0092,0,0,-0.0038,-0.0028,-0.0044,-0.0048,-0.0027,-0.0047,-0.0049,-0.009,-0.009,-0.0096,-0.0099,-0.0099,-0.0115,-0.0115,-0.0093,-0.0092,0,0,0,-0.0024,-0.0026,-0.0034,-0.0046,-0.0046,-0.0047,-0.005,-0.0088,-0.009,-0.0099,-0.0099,-0.0115,-0.0116,-0.0093,-0.0092,-0.0008,0,0,0,-0.0024,-0.0017,-0.0033,-0.0028,-0.0045,-0.0065,-0.0047,-0.0088,-0.0092,-0.0099,-0.0115,-0.0116,-0.0094,-0.0093,-0.0012,0.0039,0,0,0,-0.0019,-0.0017,-0.0018,-0.0027,-0.0034,-0.0064,-0.0069,-0.0089,-0.0092,-0.0115,-0.0116,-0.0094,-0.0093,-0.0015,0.0033,0.0085,0,0,0,-0.0011,0.0009,-0.0018,0.0005,-0.0034,-0.0016,-0.0069,-0.0071,-0.0084,-0.0116,-0.0094,-0.0092,-0.0016,0.0029,0.0081,0.017,0.0195,0,0,0.0023,0.0014,0.0028,0.0004,0.0045,-0.0013,0.0026,-0.0023,-0.0068,-0.0085,-0.0085,-0.0011,0.0032,0.0084,0.0244,0.0266,0,0,0,0.0045,0.006,0.0067,0.008,0.0075,0.0089,0.0039,0.002,-0.0001,-0.0068,-0.0008,0.0017,0.0047,0.0092,0.011,0.0044,-0.0086,-0.0087,-0.0087,0.011,0.0109,0.0149,0.0154,0.0166,0.0156,0.0158,0.0123,0.0062,0.0067,0.0086,0.0187,0.0237,0.0251,0.0182,0.008,0.008,0.0081,0.0081,0.0182,0.0209,0.0214,0.025,0.0259,0.0282,0.0271,0.0236,0.0238,0.0168,0.0192,0.018,0.0277,0.0195,0.0086,0.0085,0.0085,0.0084,0.0084,0.0228,0.0244,0.0256,0.0312,0.0361,0.0364,0.0439,0.0397,0.0329,0.0353,0.0384,0.0383,0.031,0.0358,0.0359,0.0359,0.036,0.036,0.036,0.0269,0.0287,0.0337,0.0384,0.043,0.0505,0.0534,0.0557,0.055,0.0498,0.0498,0.035,0.0272,0.0259,0.0368,0.0366,0.0365,0.0365,0.0364,0.0337,0.0335,0.0417,0.0466,0.0583,0.0704,0.0728,0.0802,0.0787,0.0806,0.0585,0.0569,0.0553,0.0537,0.0531,0.0703,0.0703,0.0703,0.0703,0.038,0.0386,0.0492,0.0585,0.0714,0.08,0.0973,0.1013,0.0885,0.079,0.0685,0.0626,0.0615,0.0596,0.0579,0.0571,0.0749,0.0749,0.0748,0.0436,0.0458,0.054,0.0618,0.0761,0.0918,0.1073,0.116,0.0951,0.0737,0.0577,0.0575,0.0469,0.0457,0.0404,0.0386,0.0363,0,0]}],[{"header":{"parameterUnit":"m.s-1","parameterCategory":2,"la1":30.2992,"la2":30.254,"lo1":-89.0895,"lo2":-89.0443,"dy":0.0025,"dx":0.0025,"nx":19,"ny":19,"refTime":"2026-04-07T09:00:00:Z","depth":"2","parameterNumber":2,"parameterNumberName":"U-component_of_CURRENTS"},"data":[0,0,0,0.2549,0.2549,0.2545,0.2544,0.2546,0.2546,0,0,0,0,0,0,0,0,0,0,0,0.2548,0.2548,0.2549,0.2549,0.2545,0.2544,0.2546,0.2546,0,0,0,0,0,0,0,0,0,0,0,0.2548,0.2548,0.2548,0.2549,0.2545,0.2544,0.2546,0.2546,0,0,0,0,0,0,0,0,0,0,0.2548,0.2549,0.2548,0.2548,0.2549,0.2545,0.2544,0.2545,0.2546,0.2554,0,0.2558,0,0.2558,0.2548,0.2548,0,0,0,0.254,0.2548,0.2551,0.2548,0.255,0.2545,0.2544,0.2545,0.2546,0.2554,0.2558,0.2558,0.2558,0.2548,0.2548,0.2609,0.261,0,0,0.254,0.2543,0.2551,0.2551,0.2555,0.2544,0.2544,0.2545,0.2547,0.2558,0.2558,0.2558,0.2548,0.2548,0.2609,0.261,0,0,0,0.2547,0.2543,0.2545,0.2551,0.2553,0.2544,0.2544,0.2546,0.2548,0.2558,0.2558,0.2548,0.2548,0.2608,0.2609,0.2638,0,0,0,0.2547,0.2548,0.2545,0.2546,0.2553,0.2549,0.2545,0.2548,0.2548,0.2558,0.2548,0.2548,0.2608,0.2609,0.2636,0.265,0,0,0,0.2547,0.2548,0.255,0.2546,0.2549,0.2549,0.255,0.2548,0.2549,0.2548,0.2548,0.2607,0.2609,0.2634,0.2647,0.2695,0,0,0,0.2545,0.2548,0.255,0.2557,0.2549,0.2564,0.255,0.2554,0.2554,0.2548,0.2608,0.2609,0.2634,0.2645,0.2692,0.2654,0.2662,0,0,0.2546,0.2548,0.2554,0.2556,0.2568,0.2563,0.2589,0.258,0.2579,0.2605,0.2606,0.2637,0.2647,0.2694,0.2729,0.2734,0,0,0,0.2552,0.2554,0.2561,0.2569,0.2581,0.2601,0.2598,0.2612,0.2636,0.2588,0.2655,0.2661,0.269,0.2662,0.2667,0.2615,0.2615,0.2615,0.2615,0.2542,0.2554,0.2557,0.2575,0.2594,0.2628,0.2655,0.2677,0.2665,0.2691,0.2698,0.2772,0.2744,0.2747,0.2713,0.2713,0.2713,0.2713,0.2713,0.2524,0.2517,0.2547,0.2552,0.2593,0.2624,0.2701,0.2718,0.2782,0.2752,0.2778,0.2711,0.2753,0.2716,0.2716,0.2715,0.2715,0.2715,0.2715,0.2491,0.2487,0.2497,0.2516,0.2557,0.262,0.2695,0.2759,0.2808,0.2841,0.282,0.2819,0.2788,0.2857,0.2857,0.2857,0.2857,0.2858,0.2858,0.2441,0.2452,0.2454,0.2482,0.2503,0.2577,0.2695,0.2764,0.2843,0.2858,0.2858,0.2821,0.2816,0.2798,0.2862,0.2861,0.2861,0.286,0.286,0.2394,0.241,0.2403,0.2416,0.2462,0.2446,0.2608,0.273,0.2841,0.2876,0.2875,0.2873,0.2864,0.2859,0.2842,0.2915,0.2915,0.2915,0.2915,0.2367,0.2374,0.2348,0.2342,0.2375,0.2382,0.2362,0.2397,0.2573,0.2599,0.2611,0.2536,0.2543,0.251,0.2513,0.2487,0.2467,0.2465,0.2464,0.2347,0.2341,0.2297,0.2281,0.2301,0.2265,0.2097,0.1955,0.2145,0.2434,0.2411,0.2908,0.2832,0.2829,0.2805,0.28,0.2768,0,0]},{"header":{"parameterUnit":"m.s-1","parameterCategory":2,"la1":30.2992,"la2":30.254,"lo1":-89.0895,"lo2":-89.0443,"dy":0.0025,"dx":0.0025,"nx":19,"ny":19,"refTime":"2026-04-07T09:00:00:Z","depth":"2","parameterNumber":3,"parameterNumberName":"V-component_of_CURRENTS"},"data":[0,0,0,-0.0018,-0.0018,-0.005,-0.0051,-0.0103,-0.0103,0,0,0,0,0,0,0,0,0,0,0,-0.0011,-0.0011,-0.0018,-0.0018,-0.005,-0.0051,-0.0103,-0.0103,0,0,0,0,0,0,0,0,0,0,0,-0.0011,-0.0011,-0.0011,-0.0018,-0.005,-0.0051,-0.0103,-0.0079,0,0,0,0,0,0,0,0,0,0,-0.0047,-0.0031,-0.0011,-0.0011,-0.0018,-0.005,-0.0051,-0.0078,-0.008,-0.0087,0,-0.0086,0,-0.0088,-0.0106,-0.0106,0,0,0,-0.0032,-0.0029,-0.0038,-0.0011,-0.0018,-0.005,-0.004,-0.0079,-0.0082,-0.009,-0.0087,-0.0088,-0.0089,-0.0106,-0.0106,-0.0083,-0.0082,0,0,-0.003,-0.0019,-0.0036,-0.0039,-0.0019,-0.0038,-0.004,-0.0081,-0.0081,-0.0087,-0.009,-0.009,-0.0106,-0.0106,-0.0083,-0.0082,0,0,0,-0.0016,-0.0018,-0.0026,-0.0037,-0.0038,-0.0039,-0.0041,-0.0079,-0.0082,-0.009,-0.009,-0.0106,-0.0107,-0.0084,-0.0083,0.0,0,0,0,-0.0015,-0.0009,-0.0025,-0.002,-0.0037,-0.0056,-0.0039,-0.0079,-0.0083,-0.009,-0.0106,-0.0107,-0.0084,-0.0083,-0.0003,0.0047,0,0,0,-0.0011,-0.0008,-0.001,-0.0019,-0.0026,-0.0055,-0.0061,-0.008,-0.0083,-0.0106,-0.0107,-0.0085,-0.0083,-0.0006,0.0041,0.0093,0,0,0,-0.0003,0.0017,-0.0009,0.0013,-0.0026,-0.0008,-0.0061,-0.0062,-0.0075,-0.0106,-0.0084,-0.0083,-0.0007,0.0037,0.0089,0.0159,0.0183,0,0,0.0031,0.0021,0.0035,0.0012,0.0052,-0.0005,0.0034,-0.0014,-0.0059,-0.0076,-0.0075,-0.0002,0.004,0.0092,0.0233,0.0254,0,0,0,0.0052,0.0067,0.0074,0.0087,0.0083,0.0096,0.0047,0.0028,0.0007,-0.0059,0.0,0.0025,0.0055,0.0089,0.0106,-0.0077,-0.0077,-0.0077,-0.0077,0.0116,0.0115,0.0155,0.0161,0.0172,0.0162,0.0165,0.013,0.007,0.0075,0.0094,0.0194,0.0232,0.0245,0.0087,0.0088,0.0088,0.0088,0.0089,0.0187,0.0214,0.022,0.0255,0.0265,0.0288,0.0277,0.0242,0.0245,0.0175,0.0199,0.0177,0.0269,0.0095,0.0094,0.0093,0.0092,0.0092,0.0091,0.0233,0.0249,0.0261,0.0317,0.0365,0.0369,0.0444,0.0402,0.0335,0.0358,0.0377,0.0376,0.0249,0.0363,0.0364,0.0364,0.0365,0.0365,0.0365,0.0273,0.0291,0.0341,0.0388,0.0434,0.0509,0.0538,0.0561,0.0546,0.0489,0.0488,0.0287,0.0278,0.0265,0.0373,0.0371,0.037,0.037,0.0369,0.034,0.0339,0.042,0.0469,0.0586,0.0683,0.0724,0.0789,0.0778,0.0791,0.0559,0.0552,0.0533,0.0519,0.0512,0.0677,0.0677,0.0677,0.0677,0.0383,0.0389,0.0495,0.0588,0.0716,0.0772,0.0894,0.0861,0.0785,0.0685,0.0683,0.0625,0.0614,0.0594,0.0577,0.0568,0.0748,0.0748,0.0748,0.0438,0.0461,0.0543,0.0621,0.0763,0.0865,0.0913,0.0811,0.0697,0.0742,0.0608,0.0699,0.0607,0.0592,0.0551,0.0529,0.0511,0,0]}],[{"header":{"parameterUnit":"m.s-1","parameterCategory":2,"la1":30.2992,"la2":30.254,"lo1":-89.0895,"lo2":-89.0443,"dy":0.0025,"dx":0.0025,"nx":19,"ny":19,"refTime":"2026-04-07T09:00:00:Z","depth":"4","parameterNumber":2,"parameterNumberName":"U-component_of_CURRENTS"},"data":[0,0,0,0.1675,0.1678,0.1818,0.1818,0.1935,0.1936,0,0,0,0,0,0,0,0,0,0,0,0.1635,0.1636,0.1675,0.1679,0.1818,0.1818,0.1935,0.1936,0,0,0,0,0,0,0,0,0,0,0,0.1634,0.1635,0.1637,0.1679,0.1818,0.1818,0.1934,0.1844,0,0,0,0,0,0,0,0,0,0,0.1717,0.1694,0.1635,0.1637,0.168,0.1818,0.1819,0.1841,0.185,0.1854,0,0.1889,0,0.1912,0.1942,0.1942,0,0,0,0.1677,0.1686,0.1718,0.1637,0.1681,0.1817,0.1755,0.1846,0.1857,0.1866,0.1891,0.1896,0.1914,0.1943,0.1943,0.206,0.2061,0,0,0.167,0.1662,0.1711,0.1725,0.1734,0.175,0.1759,0.1853,0.1873,0.1892,0.1899,0.1916,0.1943,0.1944,0.206,0.206,0,0,0,0.1649,0.1657,0.1688,0.172,0.1749,0.1754,0.1764,0.1869,0.1879,0.19,0.1917,0.1944,0.1945,0.2059,0.206,0.2092,0,0,0,0.1644,0.1645,0.1685,0.1682,0.1748,0.1821,0.1778,0.1872,0.1884,0.1917,0.1944,0.1946,0.2059,0.206,0.2089,0.2097,0,0,0,0.1625,0.1642,0.1662,0.1681,0.1741,0.182,0.1835,0.1876,0.1894,0.1942,0.1946,0.2058,0.2059,0.2087,0.2094,0.2138,0,0,0,0.1606,0.1637,0.1663,0.1709,0.1739,0.1815,0.1835,0.1905,0.1949,0.1944,0.2059,0.206,0.2087,0.2092,0.2136,0.1862,0,0,0,0.1624,0.164,0.1664,0.1689,0.1752,0.1795,0.1874,0.1943,0.1969,0.2021,0.2025,0.209,0.2094,0.2137,0.1943,0,0,0,0,0.1654,0.1674,0.1698,0.1749,0.1804,0.1872,0.1938,0.1977,0.2058,0.2003,0.2108,0.211,0.2136,0.1971,0.2066,0.2066,0.2066,0.2066,0.2066,0.1651,0.1683,0.1725,0.1778,0.1837,0.1934,0.1995,0.2062,0.2082,0.213,0.2149,0.2221,0.2048,0.2168,0.2168,0.2168,0.2168,0.2169,0.2169,0.165,0.1662,0.1734,0.1787,0.1869,0.195,0.2064,0.2108,0.2208,0.22,0.2224,0.2032,0.2172,0.2172,0.2171,0.2171,0.217,0.217,0.217,0.1614,0.1623,0.168,0.1762,0.1862,0.197,0.2056,0.2157,0.2236,0.2274,0.2116,0.2252,0.2234,0.2301,0.2301,0.2302,0.2302,0.2302,0.2302,0.154,0.1594,0.1639,0.1736,0.1799,0.1907,0.2066,0.212,0.2224,0.2125,0.2296,0.2266,0.2262,0.2243,0.2306,0.2305,0.2305,0.2304,0.2304,0.1474,0.152,0.1563,0.162,0.1736,0.1784,0.1963,0.1994,0.204,0.2014,0.2045,0.2057,0.2022,0.2025,0.1995,0.1988,0.1984,0.1981,0,0.1424,0.145,0.1498,0.1542,0.1583,0.1699,0.1678,0.1765,0.1854,0.179,0.207,0.2105,0.2111,0.2073,0.207,0.2034,0,0,0,0.1385,0.1405,0.1412,0.1467,0.1494,0.1535,0.1659,0.1619,0.1837,0.1786,0.1899,0.192,0.2159,0.2317,0.2293,0.2288,0.2256,0,0]},{"header":{"parameterUnit":"m.s-1","parameterCategory":2,"la1":30.2992,"la2":30.254,"lo1":-89.0895,"lo2":-89.0443,"dy":0.0025,"dx":0.0025,"nx":19,"ny":19,"refTime":"2026-04-07T09:00:00:Z","depth":"4","parameterNumber":3,"parameterNumberName":"V-component_of_CURRENTS"},"data":[0,0,0,0.013,0.0129,0.0102,0.0102,0.0063,0.0063,0,0,0,0,0,0,0,0,0,0,0,0.0139,0.0139,0.013,0.0129,0.0102,0.0102,0.0063,0.0063,0,0,0,0,0,0,0,0,0,0,0,0.0139,0.0139,0.0139,0.0129,0.0102,0.0102,0.0063,0.0083,0,0,0,0,0,0,0,0,0,0,0.0109,0.0123,0.0139,0.0139,0.0129,0.0103,0.0102,0.0084,0.0082,0.0076,0,0.0078,0,0.0073,0.0061,0.0061,0,0,0,0.0121,0.0125,0.0117,0.0139,0.0129,0.0103,0.0112,0.0083,0.008,0.0074,0.0077,0.0076,0.0072,0.0061,0.0061,0.0065,0.0065,0,0,0.0123,0.0132,0.0119,0.0116,0.0129,0.0113,0.0112,0.0081,0.0082,0.0077,0.0075,0.0071,0.0061,0.006,0.0065,0.0065,0,0,0,0.0132,0.0134,0.0126,0.0117,0.0115,0.0113,0.0111,0.0083,0.0081,0.0074,0.0071,0.006,0.006,0.0064,0.0065,0.0122,0,0,0,0.0133,0.0139,0.0127,0.0132,0.0116,0.01,0.0113,0.0083,0.0079,0.0071,0.006,0.006,0.0064,0.0065,0.012,0.0157,0,0,0,0.0139,0.014,0.0139,0.0133,0.0125,0.01,0.0096,0.0082,0.0078,0.0061,0.006,0.0064,0.0065,0.0118,0.0153,0.0177,0,0,0,0.0146,0.0152,0.0139,0.0147,0.0125,0.0129,0.0096,0.009,0.008,0.006,0.0064,0.0065,0.0117,0.0151,0.0174,0.0163,0,0,0,0.0157,0.0153,0.0158,0.0147,0.0166,0.0132,0.015,0.0118,0.0087,0.0072,0.0072,0.0121,0.0153,0.0176,0.0201,0,0,0,0,0.0165,0.0171,0.0175,0.0182,0.0178,0.0188,0.0155,0.0141,0.0124,0.0085,0.0118,0.0137,0.0149,0.0136,0.0068,0.0068,0.0068,0.0068,0.0068,0.0192,0.0193,0.0214,0.022,0.0227,0.0224,0.0225,0.02,0.0162,0.0163,0.0181,0.0236,0.0224,0.017,0.017,0.0171,0.0171,0.0171,0.0171,0.0221,0.0235,0.0249,0.0269,0.0285,0.0301,0.0294,0.0273,0.0271,0.023,0.0239,0.0194,0.0177,0.0176,0.0175,0.0174,0.0174,0.0173,0.0173,0.0239,0.0249,0.0262,0.0305,0.0346,0.0358,0.0404,0.0381,0.0332,0.0345,0.0315,0.0276,0.0274,0.0344,0.0344,0.0345,0.0345,0.0345,0.0345,0.0251,0.0267,0.0305,0.0347,0.0387,0.0444,0.047,0.0471,0.043,0.0389,0.0364,0.0294,0.0289,0.0284,0.035,0.0349,0.0348,0.0348,0.0348,0.0272,0.0285,0.034,0.0382,0.0473,0.0515,0.0546,0.0528,0.0524,0.0487,0.0402,0.0398,0.0377,0.0369,0.0366,0.0459,0.0459,0.0459,0,0.029,0.0299,0.0373,0.0442,0.052,0.0558,0.0579,0.0574,0.0507,0.0489,0.0511,0.0416,0.0411,0.0387,0.038,0.0377,0,0,0,0.0314,0.0334,0.0384,0.0447,0.0532,0.0564,0.0585,0.0563,0.0518,0.0507,0.0462,0.0461,0.0423,0.0362,0.032,0.0313,0.0303,0,0]}]]